Wind_Speed
18 18 18 18 19 19 20 20 21 21 22 22 22 22 23 24 24 24 24 25 26 27 28 28 29 30 30 30 31 31 31 32 32 32 33 34 34 34
18 19 19 19 19 19 20 21 22 23 23 22 22 23 24 24 24 25 25 25 26 27 28 29 30 30 30 31 31 31 31 31 32 33 33 34 35 35
18 18 18 17 18 18 19 21 22 23 23 23 24 24 25 25 25 26 26 26 26 26 27 28 28 29 30 31 32 32 32 32 33 33 34 35 35 35
17 17 16 17 18 19 20 21 22 23 24 24 24 25 25 25 25 26 25 25 25 26 26 27 28 29 29 30 31 32 33 33 33 33 34 34 35 35
18 18 17 18 18 19 20 20 21 22 23 23 23 23 24 24 25 25 26 26 26 26 26 27 28 29 30 31 31 32 32 32 33 33 34 34 35 35
20 20 19 19 19 20 21 21 22 22 23 23 22 21 21 23 24 24 25 26 26 27 26 27 27 27 28 29 30 31 31 31 32 32 33 34 35 35
20 20 20 20 20 21 21 22 22 22 22 22 22 22 21 22 23 23 25 25 25 25 25 25 25 25 26 27 28 29 30 30 31 32 33 34 35 36
21 21 21 21 22 21 22 22 21 21 21 21 22 22 22 22 23 23 23 23 24 24 25 25 25 24 25 26 27 27 28 29 30 32 33 34 35 35
22 21 21 22 22 22 22 22 21 21 21 22 22 22 22 22 22 22 22 22 23 24 24 25 26 25 26 26 27 27 28 28 29 30 31 33 34 35
22 23 23 23 24 23 22 22 21 21 21 22 22 22 22 22 22 22 23 23 23 23 24 24 25 25 26 26 27 27 27 28 28 29 29 31 32 33
24 24 24 24 24 23 23 22 22 22 22 22 23 22 22 22 22 22 22 23 23 23 24 24 24 25 25 26 26 27 27 27 28 29 30 31 31 32
25 25 25 25 25 24 23 22 22 22 22 22 22 22 21 21 21 21 21 22 22 22 23 24 24 25 25 25 26 27 28 28 29 29 30 30 31 32
25 25 24 24 24 23 23 22 22 21 21 21 21 21 21 21 21 21 21 21 21 22 23 24 24 24 25 25 25 27 28 29 29 30 30 30 31 32
24 24 23 23 23 23 22 22 22 22 22 21 21 20 20 20 21 21 21 20 21 22 22 23 24 24 25 25 25 26 27 28 28 29 30 30 30 31
23 23 23 24 23 23 23 23 22 22 22 22 21 21 21 21 20 21 22 22 22 21 21 23 24 24 25 25 25 25 26 27 28 28 29 30 30 31
24 23 24 24 23 23 23 23 22 22 21 21 21 21 21 21 21 21 21 21 22 21 22 22 22 23 24 24 24 24 25 26 27 28 28 29 30 30
24 24 24 23 23 23 23 23 23 22 22 21 21 21 21 21 21 21 21 21 21 22 22 22 23 23 23 23 24 24 24 25 26 26 27 28 28 29
24 24 24 23 23 23 22 23 23 23 22 22 22 21 21 21 21 22 22 22 22 22 22 22 22 22 22 22 22 23 23 24 25 25 26 27 28 28
23 23 23 23 23 23 23 23 23 22 22 21 22 22 21 22 22 22 22 22 22 22 23 22 22 22 22 20 20 22 22 23 24 25 25 26 26 27
23 23 23 22 22 23 23 22 23 22 22 21 21 21 22 22 22 22 22 22 22 22 23 23 22 21 20 20 20 20 22 23 23 24 24 25 25 25
24 24 24 24 23 23 23 23 23 23 23 22 22 22 22 22 22 22 22 22 22 22 22 21 21 21 20 20 20 21 21 22 23 23 23 23 23 24
24 25 24 24 24 24 24 24 23 23 23 23 23 23 23 23 22 22 22 21 21 21 21 21 20 20 21 21 21 21 21 22 22 22 22 23 23 23
24 24 24 24 24 24 24 23 23 23 23 24 24 24 24 24 23 23 22 22 21 21 20 20 20 20 20 21 21 21 22 22 21 20 20 20 21 21
Wind_Direction
297 294 292 291 292 291 288 286 284 281 280 278 279 279 277 275 272 270 267 265 265 264 262 261 262 260 258 258 257 256 256 254 254 253 252 251 251 251
302 296 292 289 289 290 288 287 286 283 281 279 278 278 278 277 274 272 270 269 268 266 264 262 261 260 260 259 258 257 256 255 255 254 253 252 253 253
309 306 301 292 293 294 293 291 289 287 284 282 279 277 276 275 275 273 272 270 268 266 265 263 261 260 259 258 258 257 256 256 256 255 255 254 254 253
314 313 308 304 300 299 297 295 293 291 288 285 282 278 276 276 275 273 273 271 269 266 266 265 262 261 261 260 258 257 257 257 257 256 255 253 252 252
313 313 311 307 306 304 303 300 297 294 292 288 286 282 279 279 277 275 273 271 269 268 267 267 266 263 261 260 258 258 258 258 258 257 256 255 254 252
311 312 311 308 306 305 305 303 302 299 294 290 288 284 284 282 281 277 275 273 270 269 268 269 268 265 262 259 258 258 257 257 257 257 257 257 256 254
311 311 311 308 305 304 303 302 301 300 296 293 291 286 284 283 283 280 278 275 272 271 269 269 268 265 261 260 259 258 258 258 258 257 257 257 257 256
312 310 308 307 305 303 303 301 300 299 299 296 293 289 285 283 282 280 278 277 274 271 268 267 267 266 263 262 260 259 260 261 261 261 259 257 257 256
313 312 310 307 306 304 304 302 301 300 300 299 297 293 289 286 282 279 278 278 275 274 271 269 268 266 265 264 263 260 260 262 263 263 261 259 257 256
311 310 309 309 308 305 304 303 302 302 301 300 300 296 293 290 286 283 281 279 277 276 275 272 270 269 268 266 266 265 264 263 264 263 261 259 258 257
309 309 308 307 307 308 306 305 304 302 300 299 300 299 294 292 290 288 285 283 280 278 277 276 273 270 269 267 266 265 266 266 266 264 262 261 260 260
305 306 306 306 306 307 307 306 305 304 302 301 300 300 297 293 292 290 288 286 284 280 280 279 276 274 272 270 268 266 266 267 267 266 265 264 263 262
306 305 305 306 307 307 306 305 303 303 302 302 300 299 297 294 292 290 290 288 285 283 283 282 280 277 276 273 272 271 269 268 267 266 264 265 265 263
307 306 307 307 308 307 306 305 304 302 300 300 301 301 299 295 292 290 290 288 287 286 285 284 282 279 278 275 273 273 273 272 270 269 268 267 267 265
306 306 306 307 308 307 305 304 303 303 301 299 299 299 299 298 297 293 290 290 290 288 287 285 284 282 280 279 276 274 273 273 272 272 271 269 268 267
304 304 305 306 305 305 305 305 305 304 304 301 299 298 298 298 299 299 296 294 293 290 289 290 288 284 282 281 279 278 276 276 275 273 272 271 268 266
304 304 305 304 304 304 304 305 306 305 304 302 300 299 299 300 300 300 298 298 297 295 294 292 290 287 285 283 280 279 279 278 278 277 274 272 270 268
304 304 304 304 303 303 304 305 306 305 304 302 301 299 299 298 298 297 297 298 298 297 296 293 291 291 290 287 283 281 280 279 279 279 276 274 271 269
303 305 305 305 305 306 305 306 307 306 304 303 302 299 298 297 296 297 298 297 296 296 297 296 294 292 289 288 286 285 285 284 282 281 280 278 275 271
304 305 306 305 305 306 305 307 309 308 306 305 302 301 300 298 297 298 298 297 296 297 296 295 294 293 291 289 289 289 288 288 286 285 284 283 281 277
302 303 305 305 304 304 304 305 307 305 304 304 302 301 301 300 299 298 297 297 296 297 296 295 294 294 293 291 290 290 290 291 290 288 287 285 282 279
301 303 304 304 303 304 303 304 304 303 302 302 302 300 299 298 299 298 296 296 296 298 298 298 297 294 292 291 292 292 292 293 294 291 288 286 282 281
302 303 304 303 303 304 304 303 303 303 302 301 302 301 300 299 298 299 297 295 296 297 298 298 299 297 294 293 292 293 294 295 295 294 291 288 285 284
Height
5776 5774 5773 5772 5771 5770 5769 5769 5768 5767 5767 5767 5767 5767 5767 5767 5768 5768 5769 5770 5771 5772 5772 5773 5774 5775 5775 5777 5778 5780 5782 5784 5786 5788 5790 5792 5795 5797
5772 5770 5769 5768 5766 5765 5765 5763 5762 5762 5761 5761 5760 5760 5760 5760 5761 5761 5762 5763 5763 5763 5764 5765 5766 5766 5767 5768 5770 5771 5773 5775 5777 5779 5781 5783 5785 5787
5768 5766 5764 5763 5762 5760 5759 5758 5756 5755 5754 5754 5753 5753 5753 5753 5753 5753 5754 5754 5755 5755 5756 5756 5757 5758 5759 5760 5761 5763 5765 5766 5768 5770 5772 5774 5776 5778
5765 5763 5761 5759 5757 5756 5754 5752 5751 5749 5748 5747 5746 5746 5746 5745 5745 5745 5746 5746 5747 5747 5748 5748 5748 5749 5750 5751 5753 5754 5756 5757 5759 5760 5762 5764 5766 5768
5762 5760 5757 5755 5753 5751 5749 5747 5745 5743 5741 5740 5739 5739 5738 5738 5737 5737 5737 5738 5738 5739 5739 5739 5740 5740 5741 5742 5744 5745 5747 5748 5750 5751 5753 5754 5756 5758
5759 5756 5754 5751 5749 5747 5744 5742 5740 5738 5735 5734 5733 5732 5731 5731 5730 5729 5729 5729 5729 5730 5731 5731 5731 5731 5732 5733 5735 5736 5737 5739 5740 5742 5743 5745 5746 5748
5754 5752 5749 5747 5744 5742 5739 5737 5735 5732 5730 5728 5727 5726 5725 5724 5723 5722 5721 5721 5721 5721 5722 5723 5723 5724 5724 5725 5726 5727 5728 5729 5731 5732 5733 5734 5736 5738
5750 5747 5744 5742 5739 5737 5734 5732 5729 5727 5725 5723 5721 5719 5718 5717 5716 5715 5714 5714 5714 5715 5714 5715 5715 5716 5716 5717 5717 5718 5719 5720 5721 5722 5723 5724 5726 5727
5745 5742 5739 5737 5734 5731 5729 5726 5724 5721 5719 5717 5715 5713 5712 5711 5710 5709 5708 5707 5707 5707 5707 5707 5707 5708 5708 5709 5709 5710 5711 5711 5712 5712 5712 5714 5715 5717
5740 5737 5734 5732 5729 5726 5723 5721 5719 5716 5714 5711 5709 5707 5706 5704 5703 5702 5701 5701 5701 5700 5700 5700 5700 5700 5700 5701 5701 5702 5702 5703 5703 5703 5703 5704 5705 5707
5735 5732 5729 5726 5723 5720 5718 5715 5713 5710 5708 5705 5703 5701 5699 5698 5696 5695 5694 5694 5694 5694 5693 5693 5692 5692 5692 5693 5693 5693 5694 5694 5694 5694 5694 5695 5696 5697
5728 5726 5723 5720 5717 5714 5712 5709 5707 5705 5702 5700 5698 5696 5694 5692 5690 5689 5688 5687 5686 5687 5686 5685 5685 5684 5685 5685 5685 5685 5685 5685 5685 5685 5685 5685 5686 5687
5722 5719 5717 5714 5711 5708 5706 5704 5701 5699 5697 5694 5692 5690 5688 5686 5684 5683 5682 5680 5680 5679 5679 5677 5677 5677 5677 5677 5677 5676 5676 5676 5676 5676 5676 5676 5676 5677
5716 5713 5711 5708 5705 5703 5700 5698 5695 5693 5691 5689 5687 5684 5682 5680 5679 5677 5676 5674 5673 5672 5672 5670 5670 5669 5669 5669 5669 5668 5667 5667 5667 5667 5667 5667 5667 5667
5711 5708 5705 5702 5700 5697 5695 5692 5690 5687 5684 5682 5680 5678 5676 5675 5673 5671 5669 5668 5667 5666 5665 5663 5662 5661 5661 5660 5660 5660 5659 5659 5658 5658 5657 5657 5657 5658
5705 5702 5699 5697 5694 5691 5689 5686 5684 5681 5678 5676 5674 5672 5670 5669 5667 5665 5663 5662 5661 5659 5658 5656 5655 5654 5653 5652 5652 5651 5650 5650 5649 5649 5648 5648 5648 5648
5699 5696 5693 5691 5688 5686 5683 5680 5677 5675 5672 5670 5668 5666 5665 5663 5661 5659 5658 5656 5654 5653 5652 5650 5648 5646 5645 5645 5644 5643 5642 5641 5640 5639 5639 5639 5639 5638
5693 5690 5688 5685 5682 5680 5677 5674 5671 5668 5666 5663 5661 5660 5658 5656 5655 5653 5651 5650 5648 5646 5645 5643 5641 5640 5639 5638 5636 5635 5634 5633 5632 5631 5630 5629 5629 5629
5687 5684 5682 5679 5676 5674 5671 5668 5665 5662 5660 5657 5655 5653 5652 5650 5648 5646 5645 5643 5641 5640 5638 5636 5634 5632 5631 5631 5630 5628 5626 5625 5624 5622 5621 5620 5619 5619
5681 5678 5676 5673 5670 5668 5665 5662 5659 5656 5653 5651 5649 5647 5645 5643 5641 5640 5638 5636 5634 5633 5631 5629 5627 5625 5624 5624 5623 5621 5619 5617 5616 5614 5613 5611 5610 5610
5675 5673 5670 5667 5664 5662 5659 5656 5653 5650 5648 5645 5643 5641 5638 5636 5634 5633 5631 5629 5627 5626 5624 5622 5620 5618 5617 5616 5616 5614 5612 5610 5608 5606 5604 5602 5601 5601
5669 5666 5663 5661 5658 5655 5652 5650 5647 5644 5641 5639 5637 5634 5632 5630 5628 5626 5624 5623 5621 5619 5617 5615 5614 5612 5610 5609 5608 5606 5605 5602 5600 5598 5596 5594 5592 5591
5662 5660 5657 5654 5651 5648 5646 5643 5640 5638 5635 5633 5630 5627 5625 5623 5621 5619 5617 5616 5614 5612 5610 5609 5607 5605 5603 5602 5600 5598 5597 5595 5593 5591 5589 5586 5585 5583